Tinley Park, Illinois, United States (60477)
Lat: 41.57N, Lon: 87.78W
Wx Zone: ILZ014
Local Info
Past Weather Observations for Today

NOTE: This archive is for the closest National Weather Service station to Tinley Park. Information may differ from the station used for current weather conditions.

Click here for Long-term Archive

Time Weather Temperature Dewpoint Humidity Pressure Winds Precip Visibility
16:35
Clear
73°F / 23°C 64°F / 18°C 74% 30.12 in
(1020 mb)
ENE 8.1 mph
(ENE 13 kph)
- 10SM
16:15
Clear
73°F / 23°C 63°F / 17°C 69% 30.12 in
(1020 mb)
ENE 11.5 mph
(ENE 19 kph)
- 10SM
15:55
Clear
73°F / 23°C 63°F / 17°C 69% 30.12 in
(1020 mb)
NE 11.5 mph
(NE 19 kph)
- 10SM
15:35
Clear
73°F / 23°C 63°F / 17°C 69% 30.12 in
(1020 mb)
NE 12.7 mph
(NE 20 kph)
- 10SM
15:15
Clear
73°F / 23°C 63°F / 17°C 69% 30.12 in
(1020 mb)
NE 11.5 mph
(NE 19 kph)
- 10SM
14:55
Clear
75°F / 24°C 64°F / 18°C 69% 30.12 in
(1020 mb)
NE 10.4 mph
(NE 17 kph)
- 10SM
14:35
Clear
77°F / 25°C 63°F / 17°C 61% 30.12 in
(1020 mb)
NE 8.1 mph
(NE 13 kph)
- 10SM
14:15
Clear
77°F / 25°C 63°F / 17°C 61% 30.12 in
(1020 mb)
NE 5.8 mph
(NE 9 kph)
- 10SM
13:55
Clear
77°F / 25°C 63°F / 17°C 61% 30.12 in
(1020 mb)
ENE 8.1 mph
(ENE 13 kph)
- 10SM
13:35
Clear
77°F / 25°C 63°F / 17°C 61% 30.15 in
(1021 mb)
NNE 8.1 mph
(NNE 13 kph)
- 10SM
13:15
Clear
77°F / 25°C 63°F / 17°C 61% 30.15 in
(1021 mb)
NE 6.9 mph
(NE 11 kph)
- 10SM
12:55
Clear
77°F / 25°C 63°F / 17°C 61% 30.15 in
(1021 mb)
NE 8.1 mph
(NE 13 kph)
- 10SM
12:35
Clear
79°F / 26°C 63°F / 17°C 58% 30.15 in
(1021 mb)
N 9.2 mph
(N 15 kph)
- 10SM
12:15
Clear
77°F / 25°C 63°F / 17°C 61% 30.15 in
(1021 mb)
ENE 5.8 mph
(ENE 9 kph)
- 10SM
11:55
Clear
77°F / 25°C 61°F / 16°C 57% 30.15 in
(1021 mb)
NE 5.8 mph
(NE 9 kph)
- 10SM
11:35
Clear
77°F / 25°C 61°F / 16°C 57% 30.15 in
(1021 mb)
NE 5.8 mph
(NE 9 kph)
- 10SM
11:15
Clear
77°F / 25°C 61°F / 16°C 57% 30.15 in
(1021 mb)
NE 8.1 mph
(NE 13 kph)
- 10SM
10:55
Clear
77°F / 25°C 61°F / 16°C 57% 30.15 in
(1021 mb)
ESE 4.6 mph
(ESE 7 kph)
- 10SM
10:35
Clear
77°F / 25°C 63°F / 17°C 61% 30.15 in
(1021 mb)
NE 3.5 mph
(NE 6 kph)
- 10SM
10:15
Clear
75°F / 24°C 63°F / 17°C 65% 30.15 in
(1021 mb)
E 5.8 mph
(E 9 kph)
- 10SM
09:55
Clear
75°F / 24°C 63°F / 17°C 65% 30.15 in
(1021 mb)
Calm - 10SM
09:35
Clear
75°F / 24°C 63°F / 17°C 65% 30.15 in
(1021 mb)
NE 3.5 mph
(NE 6 kph)
- 10SM
09:15
Clear
75°F / 24°C 63°F / 17°C 65% 30.15 in
(1021 mb)
E 5.8 mph
(E 9 kph)
- 10SM
08:55
Clear
75°F / 24°C 63°F / 17°C 65% 30.15 in
(1021 mb)
NE 5.8 mph
(NE 9 kph)
- 10SM
08:35
Clear
73°F / 23°C 63°F / 17°C 69% 30.15 in
(1021 mb)
NE 5.8 mph
(NE 9 kph)
- 10SM
08:15
Clear
73°F / 23°C 63°F / 17°C 69% 30.15 in
(1021 mb)
ENE 5.8 mph
(ENE 9 kph)
- 10SM
07:55
Clear
73°F / 23°C 63°F / 17°C 69% 30.15 in
(1021 mb)
ENE 9.2 mph
(ENE 15 kph)
- 10SM
07:35
Clear
72°F / 22°C 63°F / 17°C 73% 30.15 in
(1021 mb)
E 6.9 mph
(E 11 kph)
- 10SM
07:15
Clear
72°F / 22°C 63°F / 17°C 73% 30.15 in
(1021 mb)
ESE 4.6 mph
(ESE 7 kph)
- 10SM
06:55
Clear
70°F / 21°C 63°F / 17°C 78% 30.15 in
(1021 mb)
E 4.6 mph
(E 7 kph)
- 10SM
06:35
Clear
68°F / 20°C 63°F / 17°C 83% 30.15 in
(1021 mb)
Calm - 10SM
06:15
Clear
68°F / 20°C 63°F / 17°C 83% 30.12 in
(1020 mb)
NE 3.5 mph
(NE 6 kph)
- 10SM
05:55
Clear
68°F / 20°C 63°F / 17°C 83% 30.12 in
(1020 mb)
E 4.6 mph
(E 7 kph)
- 10SM
05:35
Clear
68°F / 20°C 63°F / 17°C 83% 30.12 in
(1020 mb)
Calm - 10SM
05:15
Clear
68°F / 20°C 63°F / 17°C 83% 30.12 in
(1020 mb)
Calm - 10SM
04:55
Partly Cloudy
68°F / 20°C 64°F / 18°C 88% 30.12 in
(1020 mb)
E 4.6 mph
(E 7 kph)
- 10SM
04:35
Overcast
68°F / 20°C 66°F / 19°C 94% 30.12 in
(1020 mb)
Calm - 10SM
04:15
Overcast
70°F / 21°C 66°F / 19°C 88% 30.12 in
(1020 mb)
E 4.6 mph
(E 7 kph)
- 10SM
03:55
Overcast
70°F / 21°C 68°F / 20°C 94% 30.12 in
(1020 mb)
E 3.5 mph
(E 6 kph)
- 10SM
03:35
Overcast
70°F / 21°C 66°F / 19°C 88% 30.12 in
(1020 mb)
ENE 4.6 mph
(ENE 7 kph)
- 10SM
03:15
Overcast
70°F / 21°C 68°F / 20°C 94% 30.12 in
(1020 mb)
E 3.5 mph
(E 6 kph)
- 10SM
02:55
Overcast
70°F / 21°C 68°F / 20°C 94% 30.12 in
(1020 mb)
E 3.5 mph
(E 6 kph)
- 10SM
02:35
Overcast
70°F / 21°C 68°F / 20°C 94% 30.12 in
(1020 mb)
ESE 3.5 mph
(ESE 6 kph)
- 10SM
02:15
Overcast
70°F / 21°C 68°F / 20°C 94% 30.12 in
(1020 mb)
ENE 3.5 mph
(ENE 6 kph)
- 10SM
01:55
Overcast
70°F / 21°C 68°F / 20°C 94% 30.12 in
(1020 mb)
NE 3.5 mph
(NE 6 kph)
- 10SM
01:35
Mostly Cloudy
70°F / 21°C 68°F / 20°C 94% 30.12 in
(1020 mb)
Calm - 10SM
01:15
Partly Cloudy
70°F / 21°C 68°F / 20°C 94% 30.12 in
(1020 mb)
ENE 3.5 mph
(ENE 6 kph)
- 10SM
00:55
Mostly Cloudy
70°F / 21°C 68°F / 20°C 94% 30.12 in
(1020 mb)
NE 3.5 mph
(NE 6 kph)
- 10SM
00:35
Overcast
70°F / 21°C 68°F / 20°C 94% 30.12 in
(1020 mb)
NE 3.5 mph
(NE 6 kph)
- 10SM
00:15
Partly Cloudy
70°F / 21°C 68°F / 20°C 94% 30.12 in
(1020 mb)
Calm - 10SM
Time Weather Temperature Dewpoint Humidity Pressure Winds Precip Visibility


Weather for websites

WeatherForYou.com, LLC is not responsible for any damages or problems caused by this service. Current weather conditions are obtained from the closest station including government and personal stations which may have varying degrees of accuracy. Weather forecasts are derived from the NOAA NDFD. Like all things, this site belongs to Jesus Christ... He just trusts me to maintain it. If you have any questions or comments email webmaster@weatherforyou.com

Copyright © 2014, WeatherForYou.com LLC. All rights reserved.